Flag for Brazil Weather past 2 weeks in Campinas, São Paulo, Brazil

Now
72 °F

Clear.


Feels Like: 74 °F
Forecast: 68 / 87 °F
Wind: 6 mph from Southeast

Location: Campinas Aeroporto

Current Time: Oct 1, 2014 at 3:57:48 AM

Latest Report: Oct 1, 2014 at 3:00 AM


Visibility: 10 mi

Pressure: 29.98 "Hg

Humidity: 73%

Dew point: 63 °F

Location of CampinasLocation

Historic Weather in Campinas — Graph

°F

Campinas temperature yesterday

Maximum temperature yesterday: 90 °F (at 3:00 PM)
Minimum temperature yesterday: 66 °F (at 5:00 AM)
Average temperature yesterday: 77 °F

Past Weeks' High & Low Weather Summary

 TemperatureHumidityPressure
High91 °F (Sep 24, 3:00 PM)100% (Sep 26, 5:00 PM)30.21 "Hg (Sep 26, 5:00 PM)
Low54 °F (Sep 23, 6:00 AM)19% (Sep 23, 3:00 PM)29.92 "Hg (Sep 19, 2:00 AM)
Average71 °F69%30.05 "Hg
* Reported Sep 16 3:00 AM — Oct 1 3:00 AM, Campinas, Weather by CustomWeather, © 2014

Note: Actual official high and low records may vary slightly from our data, if they occured in-between our weather recording intervals... More about our weather records

Advertising

Campinas weather history for previous 24 hours

 ConditionsComfort  
Time TempWeatherWind HumidityBarometerVisibility
3:00 AM
Oct 1
72 °FClear.6 mph73%29.98 "Hg10 mi
2:00 AM72 °FClear.6 mph73%29.98 "Hg10 mi
1:00 AM73 °FClear.6 mph69%29.98 "Hg10 mi
12:00 AM73 °FClear.7 mph69%30.01 "Hg10 mi
11:00 PM
Sep 30
75 °FClear.6 mph65%30.04 "Hg10 mi
10:00 PM75 °FClear.6 mph65%30.04 "Hg10 mi
9:00 PM75 °FClear.6 mph65%30.04 "Hg10 mi
8:00 PM81 °FClear.5 mph51%30.04 "Hg10 mi
7:00 PM81 °FClear.7 mph51%30.01 "Hg10 mi
6:00 PM84 °FPassing clouds.10 mph43%30.01 "HgN/A
5:00 PM86 °FPassing clouds.10 mph38%29.98 "HgN/A
4:00 PM88 °FPassing clouds.9 mph38%29.98 "HgN/A
3:00 PM90 °FPassing clouds.12 mph33%29.98 "HgN/A
2:00 PM88 °FSunny.10 mph40%29.98 "Hg10 mi
1:00 PM82 °FSunny.8 mph48%30.01 "Hg10 mi
12:00 PM82 °FSunny.8 mph45%30.04 "Hg10 mi
11:00 AM79 °FSunny.6 mph54%30.07 "Hg10 mi
10:00 AM77 °FPassing clouds.5 mph57%30.07 "HgN/A
9:00 AM73 °FPassing clouds.8 mph69%30.09 "HgN/A
8:00 AM70 °FScattered clouds.8 mph78%30.07 "HgN/A
7:00 AM68 °FScattered clouds.6 mph88%30.07 "Hg4 mi
6:00 AM68 °FScattered showers. Partly sunny.5 mph83%30.04 "Hg6 mi
5:00 AM66 °FScattered showers. Partly sunny.5 mph88%30.01 "HgN/A
4:00 AM68 °FClear.6 mph83%30.01 "Hg10 mi
3:00 AM68 °FClear.No wind83%30.01 "Hg10 mi
Weather by CustomWeather, © 2014

See weather overviewHow to use our weather pages